LOG102 KTEX-KAVX

Flight info

Callsign LOG102
Flight time 1h 35m
Altitude 16000
Route ETL V68 DVC/N0419F280 TBC/N0415F300 J64 CIVET
Aircraft RJ1H/M-SDFGIRWY/LB1

Departure

Time 2026-04-20 10:36
Airport Telluride Regional Airport (KTEX)

Arrival

Time 2026-04-20 12:12
Airport Catalina Airport (KAVX)
Time Latitude Longitude Altitude Speed Heading
2026-04-20 09:55 37.95397 -107.90340 9058 ft 0 kts 282°
2026-04-20 10:20 37.95396 -107.90334 9057 ft 4 kts 285°
2026-04-20 10:20 37.95381 -107.90313 9058 ft 4 kts 347°
2026-04-20 10:21 37.95365 -107.90311 9057 ft 1 kts
2026-04-20 10:21 37.95364 -107.90311 9057 ft 0 kts
2026-04-20 10:30 37.95370 -107.90309 9058 ft 3 kts 28°
2026-04-20 10:30 37.95379 -107.90261 9057 ft 9 kts 102°
2026-04-20 10:30 37.95349 -107.90163 9058 ft 15 kts 117°
2026-04-20 10:31 37.95253 -107.90152 9049 ft 22 kts 231°
2026-04-20 10:31 37.95261 -107.90298 9039 ft 16 kts 279°
2026-04-20 10:31 37.95292 -107.90391 9039 ft 4 kts 222°
2026-04-20 10:31 37.95271 -107.90344 9040 ft 9 kts 104°
2026-04-20 10:32 37.95250 -107.90239 9043 ft 14 kts 104°
2026-04-20 10:32 37.95260 -107.90130 9053 ft 13 kts 28°
2026-04-20 10:32 37.95305 -107.90116 9059 ft 11 kts 30°
2026-04-20 10:32 37.95308 -107.89991 9061 ft 18 kts 106°
2026-04-20 10:33 37.95270 -107.89820 9069 ft 20 kts 105°
2026-04-20 10:33 37.95243 -107.89701 9074 ft 7 kts 113°
2026-04-20 10:33 37.95239 -107.89692 9074 ft 0 kts 118°
2026-04-20 10:33 37.95234 -107.89683 9075 ft 4 kts 130°
2026-04-20 10:34 37.95192 -107.89664 9076 ft 10 kts 185°
2026-04-20 10:34 37.95141 -107.89735 9073 ft 12 kts 281°
2026-04-20 10:34 37.95147 -107.89765 9072 ft 0 kts 286°
2026-04-20 10:35 37.95197 -107.90002 9059 ft 57 kts 285°
2026-04-20 10:35 37.95346 -107.90711 9028 ft 109 kts 285°
2026-04-20 10:35 37.95575 -107.91806 9042 ft 146 kts 284°
2026-04-20 10:35 37.95830 -107.93086 9212 ft 156 kts 283°
2026-04-20 10:36 37.96136 -107.94582 9117 ft 190 kts 285°
2026-04-20 10:36 37.96550 -107.96193 9499 ft 194 kts 290°
2026-04-20 10:36 37.97186 -107.97752 10116 ft 206 kts 299°
2026-04-20 10:36 37.97926 -107.99433 10433 ft 232 kts 295°
2026-04-20 10:37 37.98635 -108.01396 10639 ft 253 kts 291°
2026-04-20 10:37 37.99324 -108.03496 11214 ft 260 kts 288°
2026-04-20 10:37 37.99864 -108.05608 12235 ft 246 kts 284°
2026-04-20 10:37 38.00344 -108.07689 12853 ft 253 kts 284°
2026-04-20 10:38 38.00843 -108.09911 13199 ft 271 kts 283°
2026-04-20 10:38 38.01363 -108.12275 13633 ft 286 kts 284°
2026-04-20 10:38 38.01919 -108.14743 14150 ft 294 kts 284°
2026-04-20 10:38 38.02479 -108.17250 14723 ft 297 kts 283°
2026-04-20 10:39 38.03036 -108.19779 15301 ft 299 kts 283°
2026-04-20 10:39 38.03592 -108.22327 15849 ft 301 kts 283°
2026-04-20 10:39 38.04152 -108.24904 16255 ft 308 kts 284°
2026-04-20 10:39 38.04729 -108.27594 16306 ft 324 kts 284°
2026-04-20 10:40 38.05252 -108.30429 16314 ft 336 kts 274°
2026-04-20 10:40 38.04928 -108.33374 16367 ft 346 kts 247°
2026-04-20 10:40 38.03543 -108.35904 16585 ft 355 kts 226°
2026-04-20 10:40 38.01695 -108.38008 16914 ft 358 kts 223°
2026-04-20 10:41 37.99939 -108.40251 17266 ft 359 kts 232°
2026-04-20 10:41 37.98475 -108.42820 17633 ft 360 kts 239°
2026-04-20 10:41 37.97241 -108.45590 17994 ft 362 kts 244°
2026-04-20 10:41 37.96141 -108.48466 18350 ft 364 kts 246°
2026-04-20 10:42 37.95112 -108.51398 18658 ft 365 kts 248°
2026-04-20 10:42 37.94112 -108.54360 18995 ft 366 kts 248°
2026-04-20 10:42 37.93123 -108.57341 19300 ft 367 kts 248°
2026-04-20 10:42 37.92126 -108.60324 19597 ft 369 kts 248°
2026-04-20 10:43 37.91110 -108.63318 19891 ft 370 kts 248°
2026-04-20 10:43 37.90085 -108.66316 20181 ft 372 kts 248°
2026-04-20 10:43 37.89055 -108.69325 20461 ft 373 kts 248°
2026-04-20 10:43 37.88024 -108.72345 20754 ft 375 kts 248°
2026-04-20 10:44 37.86987 -108.75379 21017 ft 376 kts 248°
2026-04-20 10:44 37.85939 -108.78411 21245 ft 377 kts 247°
2026-04-20 10:44 37.84869 -108.81451 21468 ft 379 kts 248°
2026-04-20 10:44 37.83814 -108.84508 21686 ft 379 kts 248°
2026-04-20 10:45 37.82760 -108.87573 21913 ft 380 kts 248°
2026-04-20 10:45 37.81682 -108.90631 22114 ft 382 kts 245°
2026-04-20 10:45 37.80334 -108.93534 22311 ft 385 kts 237°
2026-04-20 10:45 37.78716 -108.96245 22514 ft 387 kts 233°
2026-04-20 10:46 37.76979 -108.98850 22705 ft 389 kts 231°
2026-04-20 10:46 37.75177 -109.01407 22897 ft 390 kts 230°
2026-04-20 10:46 37.73344 -109.03951 23084 ft 391 kts 230°
2026-04-20 10:46 37.71535 -109.06469 23271 ft 392 kts 230°
2026-04-20 10:47 37.69702 -109.09031 23473 ft 393 kts 230°
2026-04-20 10:47 37.67882 -109.11618 23665 ft 395 kts 231°
2026-04-20 10:47 37.66065 -109.14216 23840 ft 396 kts 231°
2026-04-20 10:47 37.64241 -109.16831 24010 ft 397 kts 231°
2026-04-20 10:48 37.62419 -109.19451 24175 ft 398 kts 231°
2026-04-20 10:48 37.60590 -109.22074 24337 ft 399 kts 231°
2026-04-20 10:48 37.58739 -109.24682 24496 ft 400 kts 230°
2026-04-20 10:48 37.56888 -109.27309 24654 ft 401 kts 231°
2026-04-20 10:49 37.55040 -109.29948 24788 ft 402 kts 231°
2026-04-20 10:49 37.53167 -109.32586 24966 ft 403 kts 230°
2026-04-20 10:49 37.51306 -109.35221 25149 ft 403 kts 231°
2026-04-20 10:49 37.49450 -109.37866 25316 ft 402 kts 230°
2026-04-20 10:50 37.47581 -109.40490 25504 ft 402 kts 230°
2026-04-20 10:50 37.45721 -109.43119 25692 ft 402 kts 231°
2026-04-20 10:50 37.43867 -109.45754 25860 ft 402 kts 230°
2026-04-20 10:50 37.42003 -109.48374 26048 ft 402 kts 230°
2026-04-20 10:51 37.40139 -109.50987 26223 ft 401 kts 230°
2026-04-20 10:51 37.38306 -109.53584 26511 ft 391 kts 230°
2026-04-20 10:51 37.36510 -109.56107 26873 ft 384 kts 230°
2026-04-20 10:51 37.34745 -109.58597 27226 ft 379 kts 231°
2026-04-20 10:52 37.33003 -109.61056 27596 ft 374 kts 230°
2026-04-20 10:52 37.31278 -109.63469 27967 ft 368 kts 230°
2026-04-20 10:52 37.29589 -109.65854 28335 ft 363 kts 231°
2026-04-20 10:52 37.27923 -109.68198 28705 ft 357 kts 230°
2026-04-20 10:53 37.26282 -109.70499 29087 ft 350 kts 231°
2026-04-20 10:53 37.24681 -109.72762 29476 ft 344 kts 230°
2026-04-20 10:53 37.23098 -109.74972 29844 ft 338 kts 230°
2026-04-20 10:53 37.21547 -109.77134 30000 ft 338 kts 231°
2026-04-20 10:54 37.19979 -109.79343 30046 ft 340 kts 231°
2026-04-20 10:54 37.16784 -109.83809 30069 ft 348 kts 230°
2026-04-20 10:55 37.13511 -109.88365 30076 ft 355 kts 231°
2026-04-20 10:55 37.10176 -109.93030 30067 ft 363 kts 230°
2026-04-20 10:56 37.06755 -109.97777 30060 ft 371 kts 230°
2026-04-20 10:56 37.03262 -110.02616 30054 ft 378 kts 231°
2026-04-20 10:57 36.99712 -110.07550 30045 ft 385 kts 231°
2026-04-20 10:57 36.96100 -110.12581 30041 ft 392 kts 230°
2026-04-20 10:58 36.92406 -110.17688 30031 ft 399 kts 230°
2026-04-20 10:58 36.88645 -110.22877 30011 ft 405 kts 230°
2026-04-20 10:59 36.84866 -110.28084 30013 ft 409 kts 231°
2026-04-20 10:59 36.81032 -110.33354 29992 ft 411 kts 230°
2026-04-20 11:00 36.77192 -110.38632 29982 ft 411 kts 231°
2026-04-20 11:00 36.73347 -110.43919 29973 ft 412 kts 231°
2026-04-20 11:01 36.69492 -110.49206 29974 ft 412 kts 231°
2026-04-20 11:01 36.65630 -110.54483 29958 ft 412 kts 231°
2026-04-20 11:02 36.61763 -110.59762 29955 ft 413 kts 231°
2026-04-20 11:02 36.57896 -110.65047 29949 ft 413 kts 231°
2026-04-20 11:03 36.54028 -110.70332 29943 ft 413 kts 231°
2026-04-20 11:03 36.50167 -110.75615 29942 ft 413 kts 231°
2026-04-20 11:04 36.46302 -110.80903 29946 ft 414 kts 230°
2026-04-20 11:04 36.42396 -110.86162 29948 ft 414 kts 230°
2026-04-20 11:05 36.38511 -110.91441 29945 ft 414 kts 230°
2026-04-20 11:05 36.34623 -110.96654 29954 ft 414 kts 230°
2026-04-20 11:06 36.30735 -111.01929 29954 ft 414 kts 230°
2026-04-20 11:06 36.26809 -111.07169 29960 ft 415 kts 230°
2026-04-20 11:07 36.22907 -111.12430 29960 ft 415 kts 230°
2026-04-20 11:07 36.18977 -111.17675 29974 ft 415 kts 230°
2026-04-20 11:08 36.15108 -111.22980 29970 ft 413 kts 237°
2026-04-20 11:08 36.12339 -111.29150 29987 ft 410 kts 245°
2026-04-20 11:09 36.10217 -111.35682 29990 ft 409 kts 255°
2026-04-20 11:09 36.08745 -111.42483 29994 ft 410 kts 257°
2026-04-20 11:10 36.07400 -111.49333 29996 ft 410 kts 257°
2026-04-20 11:10 36.06020 -111.56174 29994 ft 410 kts 257°
2026-04-20 11:11 36.04562 -111.62997 30003 ft 411 kts 256°
2026-04-20 11:11 36.03117 -111.69828 29996 ft 411 kts 256°
2026-04-20 11:12 36.01663 -111.76614 30049 ft 411 kts 256°
2026-04-20 11:12 36.00195 -111.83495 30097 ft 412 kts 256°
2026-04-20 11:13 35.98734 -111.90286 30147 ft 412 kts 256°
2026-04-20 11:13 35.97269 -111.97131 30198 ft 413 kts 256°
2026-04-20 11:14 35.95799 -112.03987 30241 ft 413 kts 256°
2026-04-20 11:14 35.94331 -112.10841 30240 ft 413 kts 256°
2026-04-20 11:15 35.92866 -112.17693 30232 ft 413 kts 256°
2026-04-20 11:15 35.91406 -112.24558 30236 ft 414 kts 256°
2026-04-20 11:16 35.89909 -112.31411 30188 ft 414 kts 255°
2026-04-20 11:16 35.88414 -112.38282 30142 ft 414 kts 256°
2026-04-20 11:17 35.87153 -112.43982 30106 ft 414 kts 256°
2026-04-20 11:17 35.85649 -112.50846 30058 ft 415 kts 255°
2026-04-20 11:18 35.84131 -112.57711 30017 ft 415 kts 256°
2026-04-20 11:18 35.82625 -112.64579 30008 ft 415 kts 255°
2026-04-20 11:19 35.81103 -112.71447 30001 ft 415 kts 255°
2026-04-20 11:19 35.79588 -112.78314 29993 ft 415 kts 255°
2026-04-20 11:20 35.78082 -112.85185 29985 ft 415 kts 255°
2026-04-20 11:20 35.76557 -112.92042 29977 ft 415 kts 255°
2026-04-20 11:21 35.75013 -112.98894 29968 ft 415 kts 255°
2026-04-20 11:21 35.73471 -113.05748 29971 ft 416 kts 255°
2026-04-20 11:22 35.71915 -113.12594 29964 ft 415 kts 254°
2026-04-20 11:22 35.70358 -113.19439 29963 ft 415 kts 255°
2026-04-20 11:23 35.68811 -113.26280 29948 ft 415 kts 254°
2026-04-20 11:23 35.67267 -113.33128 29948 ft 415 kts 255°
2026-04-20 11:24 35.65726 -113.39971 29942 ft 415 kts 254°
2026-04-20 11:24 35.64188 -113.46819 29936 ft 416 kts 254°
2026-04-20 11:25 35.62619 -113.53659 29921 ft 416 kts 253°
2026-04-20 11:25 35.60875 -113.60431 29919 ft 416 kts 252°
2026-04-20 11:26 35.59054 -113.67178 29918 ft 416 kts 252°
2026-04-20 11:26 35.57210 -113.73926 29928 ft 417 kts 251°
2026-04-20 11:27 35.55355 -113.80684 29933 ft 418 kts 252°
2026-04-20 11:27 35.53491 -113.87450 29938 ft 418 kts 252°
2026-04-20 11:28 35.51660 -113.94234 29944 ft 419 kts 252°
2026-04-20 11:28 35.49815 -114.01020 29950 ft 419 kts 252°
2026-04-20 11:29 35.47951 -114.07800 29944 ft 420 kts 252°
2026-04-20 11:29 35.46098 -114.14597 29944 ft 421 kts 252°
2026-04-20 11:30 35.44232 -114.21401 29933 ft 421 kts 252°
2026-04-20 11:30 35.42344 -114.28218 29906 ft 422 kts 252°
2026-04-20 11:31 35.40478 -114.35035 29893 ft 422 kts 252°
2026-04-20 11:31 35.38573 -114.41839 29889 ft 422 kts 252°
2026-04-20 11:32 35.36686 -114.48651 29900 ft 422 kts 252°
2026-04-20 11:32 35.34781 -114.55454 29903 ft 422 kts 252°
2026-04-20 11:33 35.32871 -114.62245 29905 ft 422 kts 252°
2026-04-20 11:33 35.30977 -114.69042 29900 ft 422 kts 252°
2026-04-20 11:34 35.29085 -114.75787 29901 ft 422 kts 252°
2026-04-20 11:34 35.27165 -114.82626 29914 ft 422 kts 252°
2026-04-20 11:35 35.25276 -114.89365 29915 ft 422 kts 252°
2026-04-20 11:35 35.23377 -114.96148 29924 ft 421 kts 252°
2026-04-20 11:36 35.21475 -115.02927 29924 ft 422 kts 253°
2026-04-20 11:36 35.19524 -115.09694 29933 ft 422 kts 253°
2026-04-20 11:37 35.17600 -115.16485 29950 ft 423 kts 253°
2026-04-20 11:37 35.14673 -115.26638 29944 ft 422 kts 253°
2026-04-20 11:38 35.12736 -115.33397 29962 ft 421 kts 253°
2026-04-20 11:38 35.10802 -115.40143 29965 ft 421 kts 253°
2026-04-20 11:39 35.08873 -115.46885 29966 ft 420 kts 253°
2026-04-20 11:39 35.06951 -115.53625 29979 ft 420 kts 253°
2026-04-20 11:40 35.05031 -115.60358 29977 ft 420 kts 253°
2026-04-20 11:40 35.03070 -115.67066 29965 ft 419 kts 252°
2026-04-20 11:41 35.01138 -115.73765 29958 ft 418 kts 252°
2026-04-20 11:41 34.99168 -115.80440 29956 ft 418 kts 252°
2026-04-20 11:42 34.97221 -115.87121 29958 ft 418 kts 252°
2026-04-20 11:42 34.95265 -115.93803 29958 ft 418 kts 252°
2026-04-20 11:43 34.93299 -116.00477 29944 ft 418 kts 252°
2026-04-20 11:43 34.91322 -116.07133 29938 ft 417 kts 252°
2026-04-20 11:44 34.89348 -116.13778 29938 ft 417 kts 252°
2026-04-20 11:44 34.87377 -116.20427 29938 ft 417 kts 252°
2026-04-20 11:45 34.85414 -116.27065 29927 ft 416 kts 252°
2026-04-20 11:45 34.83459 -116.33691 29921 ft 416 kts 252°
2026-04-20 11:46 34.81473 -116.40294 29946 ft 416 kts 251°
2026-04-20 11:46 34.78732 -116.46456 29960 ft 418 kts 240°
2026-04-20 11:47 34.75131 -116.52042 29970 ft 422 kts 230°
2026-04-20 11:47 34.70996 -116.57112 29974 ft 422 kts 227°
2026-04-20 11:48 34.66802 -116.62106 29975 ft 422 kts 227°
2026-04-20 11:48 34.62668 -116.67152 29971 ft 421 kts 228°
2026-04-20 11:49 34.58561 -116.72205 29958 ft 420 kts 228°
2026-04-20 11:49 34.54459 -116.77256 29957 ft 420 kts 228°
2026-04-20 11:50 34.50336 -116.82270 29952 ft 420 kts 228°
2026-04-20 11:50 34.46212 -116.87283 29950 ft 420 kts 227°
2026-04-20 11:51 34.42098 -116.92296 29951 ft 419 kts 227°
2026-04-20 11:51 34.37979 -116.97280 29953 ft 419 kts 228°
2026-04-20 11:52 34.33866 -117.02279 29979 ft 419 kts 227°
2026-04-20 11:52 34.29738 -117.07261 30006 ft 419 kts 227°
2026-04-20 11:53 34.25624 -117.12263 30032 ft 419 kts 227°
2026-04-20 11:53 34.21505 -117.17234 30036 ft 413 kts 227°
2026-04-20 11:54 34.19610 -117.19516 29271 ft 413 kts 227°
2026-04-20 11:54 34.17586 -117.21961 28387 ft 414 kts 227°
2026-04-20 11:54 34.15552 -117.24431 27503 ft 415 kts 227°
2026-04-20 11:54 34.13516 -117.26911 26602 ft 416 kts 227°
2026-04-20 11:55 34.11468 -117.29390 25677 ft 418 kts 226°
2026-04-20 11:55 34.09403 -117.31866 24744 ft 420 kts 226°
2026-04-20 11:55 34.07332 -117.34349 23679 ft 416 kts 226°
2026-04-20 11:55 34.05289 -117.36811 22401 ft 409 kts 226°
2026-04-20 11:56 34.03409 -117.39260 21399 ft 387 kts 230°
2026-04-20 11:56 34.01756 -117.41720 20504 ft 369 kts 232°
2026-04-20 11:56 34.00248 -117.44141 19631 ft 354 kts 234°
2026-04-20 11:56 33.98825 -117.46517 18585 ft 347 kts 234°
2026-04-20 11:57 33.97434 -117.48861 17437 ft 341 kts 234°
2026-04-20 11:57 33.96084 -117.51129 16331 ft 335 kts 233°
2026-04-20 11:57 33.94736 -117.53386 15241 ft 329 kts 233°
2026-04-20 11:57 33.93401 -117.55601 14215 ft 324 kts 232°
2026-04-20 11:58 33.92092 -117.57770 13142 ft 320 kts 232°
2026-04-20 11:58 33.90772 -117.59915 12199 ft 319 kts 231°
2026-04-20 11:58 33.89466 -117.62043 11721 ft 314 kts 232°
2026-04-20 11:58 33.88183 -117.64162 11187 ft 312 kts 232°
2026-04-20 11:59 33.86910 -117.66257 10671 ft 309 kts 232°
2026-04-20 11:59 33.85633 -117.68333 10160 ft 307 kts 232°
2026-04-20 11:59 33.84374 -117.70390 9605 ft 305 kts 232°
2026-04-20 11:59 33.83130 -117.72440 9031 ft 302 kts 232°
2026-04-20 12:00 33.81883 -117.74466 8483 ft 300 kts 231°
2026-04-20 12:00 33.80642 -117.76467 7944 ft 298 kts 232°
2026-04-20 12:00 33.79420 -117.78471 7395 ft 296 kts 232°
2026-04-20 12:00 33.78208 -117.80462 6875 ft 294 kts 232°
2026-04-20 12:01 33.76996 -117.82434 6372 ft 293 kts 232°
2026-04-20 12:01 33.75769 -117.84435 6160 ft 298 kts 232°
2026-04-20 12:01 33.74633 -117.86301 6077 ft 296 kts 232°
2026-04-20 12:01 33.73486 -117.88183 6031 ft 291 kts 232°
2026-04-20 12:02 33.72672 -117.89523 6009 ft 278 kts 232°
2026-04-20 12:02 33.71552 -117.91345 5992 ft 268 kts 231°
2026-04-20 12:02 33.70429 -117.93145 5989 ft 269 kts 232°
2026-04-20 12:02 33.69319 -117.94950 5989 ft 269 kts 232°
2026-04-20 12:03 33.68210 -117.96764 6004 ft 269 kts 232°
2026-04-20 12:03 33.67105 -117.98571 5589 ft 270 kts 232°
2026-04-20 12:03 33.65993 -118.00384 5186 ft 269 kts 232°
2026-04-20 12:03 33.64885 -118.02188 4779 ft 268 kts 232°
2026-04-20 12:04 33.63779 -118.03980 4389 ft 267 kts 232°
2026-04-20 12:04 33.62674 -118.05762 3979 ft 265 kts 232°
2026-04-20 12:04 33.61573 -118.07529 3598 ft 264 kts 232°
2026-04-20 12:04 33.60476 -118.09282 3237 ft 262 kts 232°
2026-04-20 12:05 33.59398 -118.11014 3021 ft 252 kts 233°
2026-04-20 12:05 33.58394 -118.12655 2897 ft 236 kts 233°
2026-04-20 12:05 33.57462 -118.14187 2858 ft 219 kts 233°
2026-04-20 12:05 33.56590 -118.15604 2813 ft 205 kts 232°
2026-04-20 12:06 33.55765 -118.16935 2771 ft 193 kts 232°
2026-04-20 12:06 33.54988 -118.18185 2705 ft 183 kts 232°
2026-04-20 12:06 33.54249 -118.19375 2658 ft 174 kts 232°
2026-04-20 12:06 33.53537 -118.20522 2373 ft 172 kts 232°
2026-04-20 12:07 33.52800 -118.21704 2091 ft 179 kts 232°
2026-04-20 12:07 33.52059 -118.22901 1952 ft 176 kts 233°
2026-04-20 12:07 33.51341 -118.24062 1897 ft 171 kts 234°
2026-04-20 12:07 33.50624 -118.25177 1894 ft 172 kts 235°
2026-04-20 12:08 33.49883 -118.26374 2314 ft 181 kts 235°
2026-04-20 12:08 33.49160 -118.27552 2771 ft 177 kts 236°
2026-04-20 12:08 33.48437 -118.28753 2912 ft 175 kts 236°
2026-04-20 12:08 33.47879 -118.29994 2933 ft 167 kts 248°
2026-04-20 12:09 33.47389 -118.31262 2949 ft 169 kts 243°
2026-04-20 12:09 33.46629 -118.32341 2958 ft 171 kts 228°
2026-04-20 12:09 33.45811 -118.33368 2969 ft 167 kts 229°
2026-04-20 12:09 33.45011 -118.34379 2980 ft 169 kts 229°
2026-04-20 12:10 33.44207 -118.35393 2977 ft 165 kts 229°
2026-04-20 12:10 33.43484 -118.36332 2948 ft 145 kts 233°
2026-04-20 12:10 33.42909 -118.37237 2898 ft 134 kts 237°
2026-04-20 12:10 33.42415 -118.38154 2799 ft 128 kts 244°
2026-04-20 12:11 33.41950 -118.39082 2492 ft 134 kts 239°
2026-04-20 12:11 33.41417 -118.40022 1862 ft 141 kts 238°
2026-04-20 12:11 33.40882 -118.40933 1600 ft 126 kts 236°
2026-04-20 12:11 33.40441 -118.41679 1596 ft 81 kts 235°
2026-04-20 12:12 33.40271 -118.41970 1607 ft 11 kts 233°
2026-04-20 12:12 33.40237 -118.41955 1607 ft 6 kts 81°
2026-04-20 12:12 33.40246 -118.41937 1607 ft 7 kts 53°
2026-04-20 12:12 33.40304 -118.41839 1607 ft 16 kts 54°
2026-04-20 12:13 33.40337 -118.41785 1602 ft 0 kts 54°
2026-04-20 12:13 33.40345 -118.41772 1605 ft 4 kts 54°
2026-04-20 12:13 33.40369 -118.41732 1600 ft 8 kts 54°
2026-04-20 12:14 33.40377 -118.41690 1598 ft 6 kts 107°
2026-04-20 12:14 33.40357 -118.41642 1598 ft 6 kts 130°
2026-04-20 12:14 33.40342 -118.41589 1596 ft 10 kts 82°
2026-04-20 12:14 33.40370 -118.41528 1595 ft 0 kts 59°